GFSSW_prec_pwat_159.txt.gz
Precipitable_Water
0.57 0.56 0.54 0.53 0.53 0.55 0.57 0.58 0.57 0.54 0.53 0.56 0.57 0.54 0.48 0.50 0.56 0.55 0.44 0.52 0.61 0.82 1.09 1.21 1.13 1.07 1.31 1.34 1.45 1.42 1.31 1.12 1.07 1.09 1.27 1.42 1.30 1.40 1.24 1.01 1.16 1.25 1.19 1.28 1.36
0.57 0.55 0.53 0.52 0.52 0.54 0.56 0.55 0.51 0.51 0.52 0.53 0.54 0.53 0.47 0.43 0.40 0.46 0.54 0.49 0.60 0.81 0.97 1.01 0.89 1.00 1.09 1.12 1.22 1.22 1.17 1.12 1.28 1.31 1.28 1.36 1.50 1.32 1.07 1.04 1.07 1.18 1.30 1.32 1.34
0.59 0.55 0.53 0.51 0.52 0.54 0.56 0.53 0.51 0.52 0.56 0.58 0.55 0.51 0.45 0.48 0.34 0.32 0.51 0.46 0.62 0.78 0.92 1.03 0.95 0.83 0.76 0.95 1.12 1.18 1.12 1.25 1.27 1.42 1.42 1.40 1.47 1.33 1.11 0.95 1.09 1.07 1.20 1.25 1.29
0.61 0.57 0.54 0.53 0.53 0.54 0.55 0.52 0.57 0.61 0.63 0.64 0.61 0.59 0.57 0.55 0.36 0.49 0.43 0.50 0.63 0.70 0.78 0.86 0.84 0.67 0.61 0.83 1.10 1.21 1.20 1.19 1.17 1.37 1.44 1.38 1.49 1.24 1.24 1.44 1.18 1.22 1.30 1.26 1.29
0.65 0.60 0.57 0.55 0.55 0.54 0.54 0.53 0.57 0.61 0.62 0.63 0.65 0.67 0.61 0.47 0.53 0.44 0.33 0.51 0.59 0.58 0.67 0.81 0.78 0.65 0.62 0.87 1.06 1.08 1.06 1.14 1.20 1.35 1.38 1.44 1.40 1.29 1.32 1.20 1.22 1.25 1.28 1.28 1.29
0.70 0.63 0.59 0.58 0.56 0.54 0.55 0.53 0.56 0.57 0.59 0.62 0.65 0.71 0.55 0.52 0.73 0.47 0.32 0.47 0.53 0.50 0.51 0.69 0.75 0.62 0.60 0.88 1.09 1.08 1.09 1.12 1.23 1.32 1.37 1.31 1.32 1.39 1.40 1.29 1.16 1.20 1.24 1.33 1.30
0.72 0.68 0.60 0.60 0.56 0.54 0.55 0.53 0.51 0.52 0.54 0.61 0.65 0.65 0.52 0.56 0.66 0.60 0.42 0.37 0.45 0.48 0.46 0.72 0.67 0.56 0.74 0.90 1.09 1.05 0.95 1.09 1.13 1.25 1.24 1.42 1.19 1.19 1.47 1.35 1.24 1.13 1.22 1.28 1.26
0.77 0.70 0.64 0.60 0.57 0.55 0.56 0.59 0.63 0.65 0.65 0.68 0.71 0.66 0.58 0.57 0.61 0.47 0.45 0.40 0.43 0.49 0.52 0.66 0.67 0.54 0.88 1.16 1.02 0.98 1.01 1.10 1.15 1.14 1.29 1.36 1.02 1.40 1.65 1.34 1.29 1.19 1.24 1.25 1.28
0.80 0.74 0.68 0.58 0.57 0.57 0.59 0.64 0.68 0.69 0.70 0.73 0.71 0.64 0.57 0.63 0.42 0.44 0.37 0.35 0.36 0.40 0.51 0.61 0.53 0.50 0.84 0.80 0.77 0.89 0.77 0.85 0.94 1.26 1.14 1.20 1.09 1.37 1.49 1.37 1.30 1.19 1.19 1.25 1.34
0.82 0.78 0.71 0.64 0.53 0.54 0.59 0.68 0.69 0.73 0.72 0.77 0.68 0.54 0.55 0.43 0.45 0.38 0.33 0.34 0.34 0.31 0.41 0.51 0.46 0.49 0.61 0.61 0.67 0.91 0.76 0.75 0.93 1.03 1.11 1.08 1.07 1.26 1.34 1.32 1.47 1.19 1.14 1.23 1.35
0.84 0.80 0.75 0.67 0.58 0.45 0.56 0.65 0.64 0.60 0.60 0.50 0.52 0.48 0.47 0.41 0.39 0.37 0.31 0.30 0.28 0.27 0.31 0.38 0.35 0.40 0.52 0.63 0.67 0.87 0.85 0.68 0.83 1.01 0.99 1.00 1.03 1.13 1.28 1.26 1.39 1.32 1.19 1.20 1.37
0.84 0.81 0.77 0.72 0.60 0.43 0.48 0.44 0.48 0.49 0.37 0.47 0.45 0.47 0.50 0.41 0.33 0.39 0.38 0.31 0.27 0.25 0.31 0.30 0.28 0.40 0.56 0.63 0.67 0.73 0.67 0.61 0.72 0.95 0.96 0.98 0.98 1.09 1.19 1.25 1.21 1.23 1.32 1.25 1.29
0.89 0.82 0.76 0.74 0.64 0.39 0.40 0.45 0.54 0.55 0.38 0.44 0.43 0.41 0.44 0.44 0.38 0.38 0.38 0.34 0.28 0.26 0.27 0.26 0.28 0.36 0.39 0.45 0.55 0.56 0.58 0.56 0.55 0.77 0.89 0.88 0.89 0.96 1.10 1.20 1.30 1.36 1.35 1.40 1.45
0.95 0.90 0.79 0.69 0.63 0.54 0.34 0.51 0.53 0.59 0.33 0.43 0.42 0.44 0.49 0.48 0.41 0.46 0.40 0.36 0.27 0.24 0.27 0.24 0.28 0.29 0.32 0.31 0.40 0.44 0.53 0.55 0.51 0.61 0.66 0.87 0.73 1.03 0.98 1.04 1.11 1.17 1.29 1.37 1.45
0.99 0.96 0.88 0.79 0.61 0.56 0.55 0.49 0.52 0.56 0.27 0.54 0.45 0.54 0.49 0.46 0.48 0.39 0.41 0.38 0.27 0.22 0.23 0.21 0.22 0.23 0.22 0.24 0.37 0.43 0.65 0.51 0.44 0.48 0.69 0.70 0.63 0.78 1.14 0.94 0.98 1.10 1.25 1.35 1.39
1.03 1.03 0.98 0.92 0.88 0.81 0.76 0.55 0.48 0.33 0.25 0.43 0.47 0.43 0.43 0.43 0.43 0.42 0.36 0.39 0.35 0.28 0.23 0.24 0.30 0.21 0.19 0.20 0.27 0.37 0.48 0.51 0.48 0.46 0.49 0.55 0.53 0.80 0.74 0.85 1.15 1.10 1.13 1.27 1.45
1.03 0.98 0.90 0.90 0.80 0.89 0.78 0.54 0.35 0.29 0.44 0.43 0.44 0.44 0.40 0.40 0.41 0.40 0.33 0.32 0.28 0.23 0.25 0.23 0.28 0.28 0.28 0.22 0.20 0.31 0.39 0.38 0.34 0.34 0.40 0.61 0.53 0.58 0.72 0.84 0.88 0.94 1.05 1.18 1.30
0.92 0.91 0.89 0.85 0.89 0.84 0.65 0.43 0.31 0.38 0.35 0.50 0.49 0.46 0.39 0.42 0.43 0.41 0.40 0.35 0.33 0.31 0.31 0.27 0.23 0.27 0.27 0.23 0.22 0.26 0.37 0.36 0.38 0.47 0.55 0.63 0.43 0.52 0.75 0.78 0.81 0.86 1.00 1.11 1.22
0.78 0.77 0.78 0.85 0.87 0.82 0.54 0.36 0.38 0.42 0.41 0.38 0.48 0.41 0.40 0.43 0.43 0.44 0.41 0.39 0.40 0.32 0.28 0.28 0.29 0.32 0.29 0.32 0.41 0.26 0.32 0.42 0.48 0.54 0.50 0.60 0.56 0.64 0.68 0.65 0.77 0.81 0.88 0.94 1.04
0.67 0.66 0.67 0.78 0.83 0.71 0.49 0.38 0.43 0.47 0.44 0.44 0.43 0.45 0.39 0.42 0.42 0.44 0.43 0.43 0.40 0.35 0.35 0.40 0.32 0.35 0.29 0.30 0.35 0.46 0.44 0.33 0.39 0.40 0.38 0.42 0.38 0.45 0.62 0.61 0.68 0.75 0.75 0.81 0.86
0.72 0.58 0.74 0.78 0.77 0.58 0.42 0.42 0.44 0.49 0.49 0.42 0.39 0.43 0.47 0.46 0.48 0.44 0.44 0.47 0.45 0.38 0.37 0.40 0.40 0.48 0.36 0.29 0.29 0.35 0.38 0.40 0.44 0.39 0.33 0.32 0.43 0.55 0.56 0.66 0.68 0.73 0.77 0.83 0.90
0.74 0.57 0.82 0.77 0.51 0.52 0.45 0.48 0.51 0.48 0.50 0.45 0.43 0.46 0.46 0.46 0.47 0.48 0.46 0.47 0.51 0.46 0.39 0.40 0.40 0.40 0.39 0.41 0.41 0.49 0.37 0.35 0.30 0.30 0.34 0.35 0.45 0.66 0.63 0.66 0.66 0.83 0.82 0.88 0.90
0.67 0.63 0.79 0.74 0.46 0.48 0.49 0.48 0.49 0.48 0.45 0.45 0.40 0.38 0.44 0.44 0.44 0.47 0.47 0.54 0.54 0.47 0.41 0.44 0.37 0.37 0.48 0.47 0.43 0.37 0.41 0.44 0.46 0.44 0.48 0.47 0.50 0.79 0.76 0.72 0.75 0.78 0.81 0.89 0.92
0.65 0.49 0.66 0.67 0.59 0.52 0.50 0.44 0.44 0.45 0.43 0.44 0.41 0.39 0.36 0.43 0.48 0.49 0.48 0.52 0.53 0.50 0.50 0.51 0.45 0.38 0.42 0.49 0.59 0.45 0.37 0.42 0.39 0.35 0.37 0.44 0.62 0.72 0.75 0.69 0.68 0.74 0.82 0.89 0.92
0.68 0.58 0.60 0.51 0.58 0.53 0.52 0.52 0.46 0.45 0.46 0.50 0.40 0.42 0.37 0.34 0.44 0.47 0.52 0.54 0.53 0.53 0.51 0.46 0.43 0.47 0.45 0.54 0.59 0.53 0.44 0.43 0.42 0.42 0.41 0.49 0.55 0.69 0.78 0.70 0.73 0.80 0.85 0.87 0.95
0.56 0.60 0.66 0.51 0.54 0.49 0.47 0.44 0.47 0.50 0.51 0.53 0.49 0.51 0.49 0.43 0.44 0.46 0.49 0.50 0.50 0.56 0.53 0.52 0.41 0.47 0.52 0.51 0.56 0.47 0.45 0.50 0.51 0.52 0.48 0.47 0.50 0.61 0.78 0.78 0.77 0.79 0.82 0.85 0.95
0.78 0.76 0.62 0.51 0.50 0.47 0.45 0.49 0.48 0.53 0.58 0.59 0.59 0.60 0.57 0.59 0.63 0.62 0.65 0.68 0.66 0.62 0.66 0.55 0.51 0.46 0.43 0.53 0.49 0.37 0.43 0.46 0.45 0.48 0.50 0.47 0.54 0.64 0.76 0.67 0.71 0.79 0.82 0.87 0.97

GFSSW_prec_pwat_162.txt.gz
Precipitable_Water
0.58 0.57 0.55 0.54 0.53 0.54 0.56 0.57 0.54 0.51 0.51 0.54 0.54 0.51 0.49 0.58 0.60 0.54 0.43 0.54 0.61 0.75 1.00 1.07 1.04 1.03 1.24 1.49 1.51 1.47 1.23 1.04 1.12 1.09 1.26 1.52 1.26 1.33 1.29 1.00 1.25 1.19 1.17 1.21 1.30
0.59 0.57 0.55 0.53 0.53 0.54 0.55 0.54 0.51 0.50 0.49 0.50 0.53 0.52 0.48 0.45 0.44 0.50 0.56 0.55 0.57 0.73 0.89 0.90 0.88 1.02 1.10 1.15 1.22 1.20 1.10 1.32 1.30 1.30 1.21 1.42 1.42 1.28 1.08 1.03 1.04 1.12 1.26 1.24 1.29
0.61 0.58 0.55 0.53 0.53 0.55 0.55 0.52 0.54 0.58 0.60 0.58 0.56 0.52 0.45 0.46 0.29 0.38 0.62 0.55 0.52 0.73 0.90 0.85 1.03 0.86 0.75 0.88 1.06 1.23 1.19 1.26 1.13 1.28 1.35 1.44 1.35 1.45 1.13 0.92 1.10 1.04 1.13 1.16 1.23
0.64 0.59 0.57 0.55 0.55 0.55 0.53 0.52 0.58 0.61 0.62 0.63 0.58 0.57 0.54 0.47 0.44 0.46 0.50 0.53 0.51 0.71 0.81 0.66 0.79 0.76 0.65 0.70 1.09 0.97 1.12 1.19 1.11 1.23 1.34 1.34 1.56 1.38 1.34 1.16 1.40 1.17 1.22 1.20 1.20
0.72 0.64 0.60 0.58 0.55 0.53 0.53 0.53 0.58 0.60 0.60 0.62 0.60 0.61 0.55 0.51 0.62 0.61 0.45 0.49 0.54 0.58 0.74 0.61 0.75 0.73 0.59 0.81 1.02 1.23 1.09 1.11 1.15 1.25 1.39 1.36 1.33 1.54 1.30 1.50 1.44 1.20 1.21 1.20 1.22
0.77 0.72 0.64 0.61 0.58 0.54 0.53 0.52 0.55 0.57 0.58 0.61 0.64 0.63 0.49 0.53 0.74 0.59 0.28 0.43 0.52 0.52 0.57 0.60 0.81 0.76 0.56 0.70 0.95 1.23 1.12 1.07 1.15 1.15 1.24 1.22 1.33 1.46 1.27 1.41 1.28 1.15 1.18 1.24 1.20
0.79 0.75 0.70 0.65 0.59 0.55 0.54 0.52 0.50 0.51 0.54 0.60 0.63 0.62 0.50 0.66 0.76 0.57 0.31 0.38 0.53 0.49 0.44 0.53 0.75 0.59 0.60 0.74 1.15 1.04 1.01 1.14 1.17 1.11 1.09 1.23 1.14 1.14 1.64 1.43 1.27 1.07 1.16 1.24 1.29
0.80 0.77 0.71 0.64 0.61 0.56 0.55 0.58 0.61 0.63 0.65 0.66 0.66 0.61 0.65 0.69 0.61 0.54 0.44 0.34 0.42 0.48 0.47 0.51 0.71 0.58 0.50 0.96 0.99 0.98 1.08 0.96 1.26 1.10 1.06 1.14 0.96 1.27 1.42 1.30 1.25 1.28 1.12 1.42 1.26
0.81 0.78 0.73 0.67 0.59 0.57 0.56 0.61 0.65 0.68 0.69 0.68 0.62 0.67 0.61 0.76 0.46 0.45 0.42 0.38 0.36 0.43 0.49 0.52 0.55 0.49 0.54 0.82 0.85 0.93 0.89 0.91 1.09 1.28 1.02 1.02 1.01 1.23 1.37 1.42 1.35 1.33 1.10 1.26 1.16
0.80 0.80 0.75 0.70 0.63 0.54 0.53 0.61 0.71 0.70 0.66 0.72 0.65 0.55 0.73 0.47 0.45 0.45 0.33 0.37 0.34 0.32 0.36 0.43 0.47 0.39 0.42 0.57 0.61 0.83 0.85 0.87 1.01 1.15 1.11 0.96 0.97 1.12 1.39 1.52 1.29 1.30 1.26 1.25 1.23
0.82 0.80 0.76 0.72 0.65 0.54 0.44 0.61 0.67 0.66 0.67 0.44 0.58 0.49 0.49 0.42 0.43 0.34 0.34 0.29 0.34 0.28 0.24 0.36 0.37 0.32 0.43 0.57 0.79 0.79 0.77 0.83 1.21 1.16 1.03 0.99 1.03 1.08 1.23 1.33 1.32 1.32 1.26 1.12 1.27
0.82 0.81 0.76 0.72 0.69 0.54 0.39 0.43 0.50 0.49 0.36 0.51 0.54 0.54 0.52 0.41 0.31 0.36 0.30 0.28 0.28 0.23 0.25 0.35 0.29 0.37 0.46 0.60 0.83 0.78 0.68 0.81 0.96 0.93 0.93 0.99 1.07 1.15 1.13 1.22 1.25 1.13 1.20 1.22 1.22
0.86 0.82 0.80 0.70 0.67 0.49 0.30 0.43 0.55 0.51 0.35 0.39 0.47 0.43 0.47 0.44 0.34 0.37 0.32 0.33 0.28 0.23 0.28 0.29 0.32 0.33 0.37 0.41 0.53 0.69 0.67 0.69 0.61 0.71 0.84 0.96 1.06 1.07 1.17 1.20 1.32 1.25 1.36 1.37 1.38
0.88 0.89 0.86 0.76 0.60 0.65 0.45 0.49 0.50 0.51 0.30 0.36 0.43 0.44 0.46 0.45 0.39 0.47 0.44 0.35 0.34 0.28 0.29 0.28 0.32 0.30 0.32 0.32 0.40 0.39 0.58 0.63 0.55 0.47 0.52 0.80 0.61 1.00 1.13 1.10 1.15 1.14 1.21 1.38 1.43
0.94 0.97 0.93 0.91 0.69 0.60 0.66 0.58 0.51 0.51 0.24 0.49 0.51 0.56 0.48 0.43 0.49 0.43 0.47 0.39 0.31 0.27 0.27 0.27 0.26 0.24 0.26 0.28 0.32 0.35 0.57 0.62 0.54 0.44 0.46 0.61 0.62 0.79 0.97 0.90 1.01 1.08 1.13 1.30 1.40
0.90 0.93 0.97 0.89 0.91 0.79 0.86 0.71 0.51 0.35 0.26 0.47 0.53 0.45 0.43 0.45 0.49 0.45 0.41 0.40 0.38 0.31 0.26 0.24 0.29 0.25 0.22 0.26 0.25 0.34 0.44 0.52 0.54 0.44 0.30 0.42 0.59 0.69 0.80 0.93 1.32 1.25 1.14 1.17 1.28
0.82 0.87 0.94 0.87 0.75 0.95 0.81 0.58 0.36 0.31 0.43 0.47 0.47 0.50 0.43 0.44 0.45 0.44 0.35 0.33 0.30 0.25 0.26 0.26 0.22 0.30 0.22 0.18 0.20 0.20 0.29 0.26 0.32 0.33 0.33 0.65 0.64 0.71 0.81 1.02 1.09 1.05 1.48 1.33 1.37
0.75 0.72 0.80 0.83 0.87 0.87 0.72 0.44 0.31 0.38 0.37 0.43 0.53 0.51 0.43 0.46 0.46 0.45 0.38 0.33 0.34 0.32 0.31 0.31 0.26 0.27 0.31 0.23 0.23 0.19 0.24 0.26 0.33 0.47 0.51 0.65 0.53 0.72 0.83 0.82 1.12 1.14 1.08 1.17 1.15
0.72 0.68 0.73 0.82 0.83 0.80 0.58 0.35 0.35 0.42 0.47 0.41 0.43 0.47 0.44 0.44 0.43 0.43 0.44 0.42 0.43 0.39 0.28 0.32 0.33 0.36 0.33 0.28 0.26 0.24 0.21 0.34 0.41 0.55 0.48 0.66 0.67 0.73 0.83 0.74 0.78 0.90 0.98 0.91 1.06
0.68 0.69 0.69 0.82 0.77 0.70 0.51 0.39 0.42 0.50 0.50 0.45 0.35 0.47 0.42 0.44 0.41 0.41 0.43 0.48 0.43 0.45 0.40 0.36 0.35 0.35 0.33 0.28 0.29 0.37 0.34 0.28 0.35 0.33 0.44 0.59 0.62 0.61 0.71 0.66 0.77 0.86 0.81 0.95 0.94
0.73 0.69 0.80 0.82 0.75 0.60 0.43 0.44 0.49 0.53 0.51 0.46 0.43 0.44 0.49 0.44 0.45 0.43 0.43 0.48 0.50 0.44 0.40 0.35 0.39 0.47 0.42 0.29 0.25 0.30 0.39 0.37 0.40 0.42 0.43 0.44 0.61 0.74 0.69 0.72 0.70 0.75 0.81 0.80 0.87
0.71 0.62 0.90 0.82 0.52 0.55 0.48 0.50 0.56 0.54 0.55 0.50 0.48 0.45 0.44 0.48 0.51 0.51 0.52 0.49 0.56 0.47 0.38 0.35 0.38 0.40 0.47 0.39 0.35 0.33 0.36 0.40 0.33 0.35 0.38 0.37 0.46 0.71 0.69 0.76 0.75 0.77 0.82 0.85 0.89
0.60 0.60 0.79 0.71 0.41 0.47 0.52 0.52 0.53 0.53 0.53 0.51 0.48 0.47 0.44 0.46 0.45 0.48 0.51 0.62 0.59 0.53 0.42 0.45 0.35 0.33 0.40 0.54 0.42 0.32 0.38 0.44 0.39 0.37 0.41 0.39 0.55 0.74 0.74 0.70 0.72 0.83 0.86 0.86 0.84
0.61 0.52 0.66 0.70 0.61 0.48 0.46 0.50 0.48 0.50 0.46 0.46 0.46 0.47 0.43 0.38 0.42 0.45 0.50 0.54 0.57 0.57 0.53 0.46 0.41 0.37 0.34 0.51 0.54 0.49 0.41 0.41 0.39 0.38 0.42 0.54 0.61 0.86 0.86 0.82 0.85 0.89 0.83 0.85 0.86
0.73 0.59 0.66 0.53 0.62 0.63 0.58 0.52 0.48 0.50 0.56 0.46 0.43 0.43 0.40 0.36 0.36 0.40 0.48 0.54 0.58 0.56 0.54 0.49 0.37 0.42 0.46 0.53 0.58 0.65 0.59 0.48 0.34 0.39 0.37 0.54 0.52 0.73 0.85 0.90 0.85 0.86 0.82 0.83 0.86
0.65 0.60 0.67 0.57 0.58 0.54 0.53 0.50 0.43 0.48 0.51 0.51 0.51 0.51 0.47 0.41 0.43 0.38 0.42 0.52 0.53 0.61 0.53 0.47 0.40 0.41 0.40 0.50 0.58 0.59 0.70 0.62 0.41 0.46 0.43 0.45 0.54 0.77 0.91 0.96 0.92 0.93 0.87 0.81 0.90
0.80 0.76 0.64 0.55 0.48 0.46 0.48 0.50 0.50 0.56 0.55 0.60 0.61 0.61 0.58 0.58 0.65 0.63 0.62 0.63 0.61 0.57 0.55 0.56 0.50 0.42 0.34 0.45 0.53 0.49 0.66 0.59 0.54 0.50 0.53 0.50 0.54 0.84 0.82 0.80 0.83 0.90 0.91 0.84 0.96

GFSSW_prec_pwat_165.txt.gz
Precipitable_Water
0.60 0.58 0.56 0.54 0.54 0.54 0.55 0.56 0.52 0.50 0.50 0.52 0.54 0.52 0.53 0.64 0.63 0.56 0.42 0.48 0.63 0.71 0.87 0.95 0.91 1.12 1.31 1.37 1.58 1.88 1.11 0.98 1.10 1.13 1.18 1.47 1.38 1.36 1.34 1.09 1.23 1.21 1.17 1.22 1.53
0.62 0.59 0.56 0.54 0.53 0.54 0.56 0.52 0.49 0.52 0.53 0.52 0.51 0.52 0.48 0.47 0.45 0.44 0.53 0.57 0.61 0.69 0.76 0.84 0.84 1.10 1.06 1.11 1.32 1.37 1.11 1.15 1.21 1.27 1.31 1.48 1.40 1.41 1.34 1.07 1.09 1.10 1.21 1.29 1.45
0.65 0.60 0.58 0.55 0.55 0.55 0.54 0.51 0.57 0.59 0.61 0.60 0.57 0.55 0.49 0.48 0.26 0.35 0.53 0.63 0.58 0.60 0.74 0.81 0.80 0.91 0.81 0.88 1.05 1.08 1.02 1.27 1.24 1.30 1.44 1.36 1.32 1.47 1.38 0.99 1.09 1.00 1.12 1.11 1.29
0.73 0.65 0.62 0.59 0.57 0.55 0.53 0.54 0.59 0.61 0.61 0.61 0.58 0.57 0.56 0.42 0.33 0.42 0.55 0.59 0.56 0.52 0.79 0.72 0.67 0.73 0.73 0.77 1.01 0.97 1.24 1.22 1.16 1.23 1.31 1.27 1.39 1.41 1.40 1.27 1.37 1.20 1.18 1.14 1.19
0.81 0.76 0.68 0.65 0.60 0.56 0.53 0.53 0.58 0.60 0.59 0.61 0.59 0.59 0.53 0.37 0.49 0.71 0.52 0.54 0.52 0.48 0.73 0.66 0.63 0.74 0.70 0.79 1.04 1.03 1.17 1.21 1.16 1.27 1.35 1.33 1.26 1.33 1.47 1.50 1.56 1.23 1.18 1.14 1.19
0.81 0.79 0.74 0.69 0.64 0.59 0.54 0.51 0.55 0.57 0.57 0.59 0.61 0.61 0.46 0.42 0.72 0.69 0.52 0.39 0.46 0.47 0.58 0.60 0.67 0.75 0.68 0.68 0.89 1.14 1.22 1.24 1.19 1.24 1.38 1.23 1.37 1.35 1.39 1.60 1.47 1.22 1.13 1.18 1.26
0.80 0.79 0.75 0.70 0.66 0.61 0.56 0.51 0.50 0.51 0.54 0.59 0.60 0.60 0.41 0.58 0.63 0.60 0.40 0.31 0.44 0.51 0.50 0.51 0.59 0.60 0.65 0.60 1.10 1.28 0.89 1.04 1.28 1.23 1.12 1.29 1.24 1.22 1.39 1.51 1.37 1.18 1.08 1.17 1.11
0.77 0.77 0.75 0.70 0.66 0.62 0.59 0.57 0.60 0.63 0.66 0.65 0.63 0.58 0.32 0.76 0.71 0.49 0.39 0.31 0.46 0.53 0.47 0.45 0.48 0.58 0.58 0.69 0.94 1.35 0.92 0.75 1.22 1.40 1.18 1.15 0.96 1.27 1.45 1.47 1.36 1.22 1.10 1.32 1.28
0.79 0.75 0.74 0.71 0.66 0.60 0.58 0.57 0.63 0.66 0.68 0.68 0.55 0.66 0.50 0.76 0.60 0.58 0.49 0.34 0.35 0.43 0.45 0.48 0.46 0.44 0.59 0.54 0.78 0.99 0.80 0.83 1.04 1.20 1.19 1.05 0.97 1.20 1.32 1.39 1.27 1.36 1.20 1.31 1.35
0.80 0.75 0.72 0.71 0.67 0.60 0.54 0.54 0.72 0.74 0.78 0.69 0.62 0.50 0.67 0.54 0.59 0.41 0.42 0.41 0.36 0.34 0.38 0.40 0.40 0.37 0.41 0.42 0.37 0.66 0.77 0.80 0.81 1.08 1.14 0.95 0.94 1.09 1.21 1.27 1.27 1.41 1.35 1.22 1.24
0.81 0.76 0.73 0.70 0.68 0.63 0.45 0.51 0.61 0.62 0.64 0.43 0.49 0.45 0.54 0.57 0.50 0.40 0.32 0.31 0.34 0.31 0.23 0.31 0.30 0.26 0.40 0.44 0.66 0.72 0.73 0.67 0.88 1.04 1.00 1.07 0.97 1.04 1.19 1.25 1.35 1.38 1.35 1.19 1.21
0.86 0.78 0.72 0.71 0.65 0.66 0.46 0.32 0.49 0.48 0.32 0.47 0.49 0.51 0.57 0.47 0.35 0.35 0.35 0.25 0.26 0.25 0.25 0.24 0.23 0.33 0.45 0.58 0.61 0.64 0.71 0.71 0.92 1.10 1.11 1.02 1.10 1.26 1.20 1.28 1.37 1.43 1.35 1.30 1.24
0.88 0.83 0.81 0.74 0.66 0.60 0.43 0.26 0.44 0.44 0.31 0.26 0.34 0.44 0.53 0.45 0.34 0.35 0.33 0.29 0.29 0.26 0.26 0.24 0.29 0.38 0.37 0.39 0.56 0.57 0.61 0.71 0.67 0.98 1.25 1.04 0.93 0.96 1.11 1.17 1.40 1.44 1.43 1.42 1.34
0.81 0.87 0.89 0.85 0.63 0.65 0.54 0.61 0.55 0.51 0.27 0.29 0.38 0.44 0.55 0.50 0.37 0.42 0.41 0.32 0.32 0.28 0.27 0.27 0.35 0.34 0.32 0.30 0.44 0.36 0.59 0.72 0.69 0.71 0.57 0.88 0.61 0.82 0.95 1.04 1.13 1.22 1.28 1.32 1.55
0.74 0.82 0.87 0.91 0.75 0.65 0.74 0.78 0.60 0.53 0.21 0.46 0.48 0.57 0.49 0.41 0.45 0.45 0.48 0.39 0.31 0.33 0.29 0.28 0.29 0.29 0.26 0.28 0.32 0.30 0.43 0.56 0.55 0.54 0.48 0.58 0.58 0.62 0.90 0.86 0.95 1.08 1.15 1.30 1.47
0.69 0.71 0.81 0.80 0.87 0.80 0.90 0.81 0.59 0.36 0.25 0.47 0.54 0.50 0.47 0.45 0.47 0.51 0.45 0.43 0.39 0.34 0.32 0.27 0.30 0.28 0.26 0.25 0.27 0.27 0.33 0.38 0.52 0.48 0.37 0.48 0.54 0.60 0.74 0.85 0.91 1.07 1.06 1.11 1.33
0.70 0.70 0.72 0.84 0.67 0.88 0.87 0.64 0.35 0.32 0.44 0.47 0.49 0.49 0.48 0.45 0.44 0.45 0.42 0.36 0.29 0.27 0.25 0.29 0.26 0.28 0.30 0.23 0.21 0.22 0.23 0.22 0.23 0.29 0.40 0.66 0.60 0.69 0.87 0.95 0.96 0.91 1.05 1.13 1.28
0.72 0.69 0.67 0.72 0.78 0.92 0.78 0.50 0.29 0.38 0.38 0.44 0.51 0.52 0.45 0.46 0.47 0.47 0.43 0.37 0.34 0.32 0.29 0.27 0.27 0.32 0.32 0.29 0.21 0.18 0.17 0.18 0.21 0.33 0.47 0.60 0.67 0.78 0.90 1.03 1.08 0.89 0.82 1.08 1.33
0.75 0.66 0.68 0.76 0.82 0.78 0.60 0.36 0.32 0.40 0.47 0.46 0.46 0.47 0.46 0.48 0.47 0.46 0.42 0.40 0.42 0.38 0.31 0.28 0.29 0.40 0.35 0.35 0.28 0.22 0.19 0.21 0.25 0.44 0.41 0.51 0.66 0.76 0.95 0.99 1.04 0.94 0.95 1.02 1.20
0.69 0.76 0.73 0.84 0.84 0.70 0.53 0.40 0.41 0.50 0.52 0.51 0.42 0.42 0.41 0.48 0.46 0.44 0.42 0.44 0.45 0.48 0.43 0.39 0.31 0.35 0.37 0.35 0.29 0.24 0.27 0.23 0.27 0.24 0.34 0.49 0.54 0.58 0.77 0.90 0.99 0.97 0.97 1.02 1.07
0.72 0.70 0.84 0.92 0.81 0.60 0.42 0.43 0.48 0.56 0.58 0.51 0.46 0.43 0.44 0.47 0.50 0.48 0.45 0.47 0.49 0.50 0.48 0.41 0.37 0.34 0.46 0.33 0.30 0.23 0.27 0.34 0.38 0.36 0.37 0.40 0.50 0.71 0.81 1.07 0.98 1.01 1.03 0.93 0.92
0.66 0.61 0.86 0.86 0.52 0.52 0.43 0.48 0.53 0.53 0.59 0.55 0.53 0.47 0.46 0.50 0.46 0.48 0.51 0.51 0.56 0.54 0.45 0.43 0.34 0.30 0.40 0.54 0.49 0.34 0.27 0.34 0.34 0.34 0.39 0.41 0.50 0.79 0.84 1.01 0.97 0.96 0.98 0.99 0.95
0.49 0.55 0.84 0.75 0.44 0.43 0.52 0.52 0.54 0.49 0.50 0.51 0.51 0.56 0.52 0.49 0.44 0.47 0.54 0.62 0.66 0.61 0.50 0.44 0.36 0.27 0.31 0.41 0.50 0.41 0.33 0.32 0.40 0.39 0.34 0.37 0.57 0.86 0.85 0.90 0.93 0.94 1.00 1.04 1.07
0.56 0.51 0.69 0.68 0.67 0.58 0.50 0.49 0.48 0.58 0.55 0.47 0.47 0.50 0.48 0.45 0.49 0.44 0.47 0.54 0.61 0.62 0.62 0.52 0.41 0.36 0.30 0.37 0.49 0.50 0.40 0.42 0.45 0.40 0.42 0.48 0.61 0.76 0.81 0.86 0.94 1.00 1.04 1.08 0.95
0.76 0.64 0.67 0.54 0.60 0.63 0.59 0.57 0.53 0.50 0.57 0.58 0.53 0.46 0.42 0.39 0.40 0.41 0.44 0.47 0.56 0.60 0.58 0.55 0.41 0.41 0.41 0.46 0.50 0.54 0.48 0.47 0.48 0.51 0.44 0.53 0.54 0.67 0.77 0.85 0.93 1.01 1.02 0.77 0.81
0.63 0.59 0.64 0.58 0.62 0.58 0.55 0.52 0.49 0.48 0.48 0.47 0.50 0.55 0.53 0.45 0.43 0.36 0.41 0.43 0.48 0.58 0.60 0.54 0.45 0.46 0.39 0.42 0.49 0.50 0.56 0.56 0.54 0.53 0.51 0.51 0.52 0.67 0.79 0.85 0.93 0.96 0.85 0.89 0.93
0.80 0.82 0.67 0.53 0.47 0.45 0.45 0.51 0.50 0.54 0.55 0.58 0.56 0.58 0.58 0.61 0.62 0.65 0.62 0.57 0.55 0.55 0.58 0.59 0.51 0.46 0.37 0.41 0.43 0.44 0.52 0.57 0.62 0.63 0.61 0.57 0.60 0.73 0.77 0.81 0.90 0.88 0.94 0.96 0.99

GFSSW_prec_pwat_168.txt.gz
Precipitable_Water
0.61 0.59 0.57 0.55 0.54 0.54 0.56 0.56 0.52 0.49 0.50 0.52 0.52 0.49 0.57 0.64 0.64 0.60 0.46 0.49 0.63 0.72 0.83 0.80 1.10 1.25 1.41 1.44 1.66 1.72 1.18 0.95 1.06 1.11 1.14 1.40 1.40 1.58 1.56 1.17 1.19 1.23 1.21 1.28 1.43
0.66 0.62 0.59 0.56 0.55 0.56 0.55 0.51 0.53 0.56 0.56 0.56 0.56 0.54 0.48 0.50 0.46 0.45 0.51 0.55 0.60 0.71 0.71 0.70 0.87 1.04 1.01 1.13 1.35 1.26 1.09 1.11 1.24 1.15 1.19 1.36 1.45 1.45 1.36 1.22 1.03 1.12 1.31 1.41 1.39
0.74 0.68 0.65 0.62 0.58 0.57 0.54 0.53 0.58 0.60 0.60 0.59 0.58 0.57 0.56 0.49 0.24 0.35 0.58 0.53 0.63 0.68 0.67 0.69 0.88 0.89 0.82 0.94 1.07 1.16 1.03 1.25 1.21 1.26 1.44 1.50 1.41 1.53 1.48 1.15 1.03 1.01 1.16 1.24 1.31
0.80 0.74 0.70 0.67 0.62 0.58 0.55 0.54 0.59 0.60 0.60 0.59 0.57 0.57 0.59 0.40 0.17 0.44 0.59 0.58 0.63 0.60 0.62 0.74 0.80 0.77 0.68 0.73 1.10 1.00 1.21 1.23 1.19 1.30 1.37 1.36 1.39 1.37 1.45 1.30 1.26 1.27 1.26 1.21 1.18
0.79 0.78 0.74 0.70 0.66 0.62 0.57 0.53 0.57 0.58 0.59 0.59 0.58 0.58 0.53 0.28 0.47 0.74 0.65 0.65 0.58 0.50 0.56 0.75 0.76 0.74 0.58 0.87 1.17 1.01 1.17 1.24 1.23 1.29 1.27 1.32 1.28 1.33 1.38 1.46 1.50 1.34 1.22 1.15 1.20
0.76 0.77 0.77 0.73 0.69 0.65 0.60 0.53 0.53 0.55 0.56 0.57 0.59 0.61 0.44 0.25 0.71 0.78 0.60 0.54 0.49 0.46 0.48 0.70 0.74 0.62 0.58 0.84 0.84 1.11 1.22 1.25 1.34 1.24 1.28 1.18 1.27 1.37 1.46 1.62 1.46 1.29 1.11 1.16 1.25
0.76 0.74 0.73 0.71 0.69 0.66 0.63 0.57 0.50 0.52 0.56 0.58 0.59 0.58 0.38 0.32 0.67 0.61 0.49 0.29 0.44 0.46 0.46 0.63 0.58 0.49 0.59 0.82 1.06 1.12 1.05 1.19 1.23 1.24 1.15 1.33 1.21 1.23 1.46 1.55 1.48 1.23 1.11 1.17 1.24
0.73 0.73 0.69 0.68 0.65 0.64 0.63 0.61 0.58 0.62 0.65 0.65 0.63 0.55 0.26 0.53 0.63 0.54 0.48 0.30 0.41 0.52 0.52 0.53 0.51 0.50 0.65 0.94 0.85 0.88 1.01 0.84 1.04 1.11 1.24 1.17 0.92 1.30 1.49 1.44 1.43 1.27 1.12 1.15 1.20
0.76 0.72 0.68 0.66 0.65 0.61 0.59 0.59 0.59 0.66 0.70 0.68 0.56 0.53 0.42 0.79 0.67 0.62 0.48 0.35 0.37 0.46 0.51 0.50 0.43 0.43 0.57 0.56 0.63 0.79 0.78 0.84 0.92 1.17 1.17 1.11 1.01 1.28 1.43 1.41 1.40 1.27 1.26 1.32 1.36
0.85 0.75 0.69 0.65 0.64 0.61 0.55 0.53 0.67 0.70 0.79 0.78 0.60 0.40 0.57 0.52 0.59 0.55 0.48 0.42 0.34 0.37 0.38 0.40 0.38 0.37 0.50 0.47 0.34 0.46 0.61 0.78 0.80 0.96 1.10 1.02 1.01 1.17 1.31 1.35 1.42 1.39 1.33 1.34 1.31
0.88 0.83 0.71 0.67 0.65 0.62 0.52 0.40 0.48 0.57 0.56 0.40 0.38 0.40 0.49 0.61 0.65 0.48 0.40 0.35 0.35 0.32 0.26 0.35 0.29 0.23 0.39 0.43 0.50 0.49 0.68 0.70 0.85 1.04 1.04 1.02 1.03 1.09 1.20 1.27 1.37 1.40 1.40 1.34 1.30
0.82 0.80 0.78 0.73 0.68 0.61 0.57 0.24 0.42 0.44 0.26 0.36 0.42 0.45 0.53 0.55 0.39 0.42 0.36 0.25 0.28 0.23 0.26 0.25 0.20 0.28 0.41 0.44 0.56 0.66 0.61 0.67 0.86 1.05 1.09 1.07 0.96 1.04 1.13 1.15 1.28 1.38 1.46 1.36 1.28
0.75 0.74 0.77 0.80 0.75 0.61 0.49 0.41 0.54 0.52 0.28 0.23 0.31 0.32 0.47 0.55 0.40 0.38 0.37 0.29 0.26 0.24 0.25 0.20 0.25 0.35 0.36 0.36 0.38 0.52 0.56 0.62 0.74 0.96 1.05 0.99 0.86 0.90 1.00 1.12 1.24 1.35 1.51 1.46 1.31
0.63 0.66 0.73 0.79 0.70 0.66 0.55 0.64 0.64 0.52 0.24 0.25 0.36 0.34 0.49 0.51 0.37 0.46 0.42 0.35 0.29 0.27 0.29 0.25 0.33 0.32 0.32 0.32 0.38 0.40 0.54 0.62 0.81 0.73 0.63 0.92 0.54 0.74 0.84 0.98 1.13 1.20 1.23 1.41 1.39
0.61 0.60 0.65 0.76 0.71 0.62 0.66 0.77 0.75 0.55 0.22 0.47 0.47 0.57 0.59 0.47 0.41 0.42 0.46 0.38 0.32 0.30 0.31 0.27 0.30 0.28 0.27 0.29 0.36 0.35 0.39 0.50 0.74 0.65 0.67 0.71 0.58 0.59 0.71 0.76 0.94 1.05 1.19 1.29 1.43
0.67 0.67 0.66 0.63 0.77 0.75 0.87 0.83 0.64 0.37 0.23 0.42 0.53 0.54 0.52 0.53 0.48 0.45 0.45 0.44 0.42 0.33 0.33 0.31 0.35 0.30 0.28 0.29 0.30 0.29 0.29 0.33 0.36 0.48 0.43 0.61 0.57 0.55 0.63 0.71 0.89 0.99 1.11 1.21 1.28
0.70 0.70 0.67 0.68 0.60 0.85 0.83 0.67 0.34 0.30 0.43 0.42 0.47 0.51 0.49 0.46 0.45 0.45 0.40 0.38 0.35 0.28 0.25 0.28 0.27 0.32 0.32 0.27 0.29 0.26 0.22 0.21 0.23 0.26 0.28 0.59 0.52 0.60 0.79 0.87 0.89 0.91 1.03 1.18 1.23
0.71 0.71 0.69 0.65 0.72 0.83 0.75 0.48 0.27 0.37 0.39 0.44 0.49 0.47 0.43 0.47 0.46 0.46 0.43 0.39 0.42 0.36 0.27 0.27 0.25 0.30 0.32 0.28 0.28 0.24 0.20 0.18 0.18 0.24 0.38 0.59 0.41 0.54 0.85 0.96 0.96 0.93 1.00 1.21 1.24
0.73 0.74 0.69 0.72 0.75 0.81 0.56 0.32 0.29 0.39 0.44 0.45 0.46 0.40 0.42 0.48 0.48 0.47 0.44 0.41 0.43 0.43 0.35 0.29 0.30 0.37 0.38 0.37 0.32 0.26 0.18 0.21 0.21 0.37 0.29 0.35 0.50 0.69 0.83 0.88 0.96 0.88 0.93 0.99 1.20
0.62 0.77 0.74 0.86 0.82 0.69 0.49 0.37 0.39 0.49 0.51 0.51 0.43 0.46 0.40 0.44 0.45 0.45 0.46 0.48 0.44 0.46 0.47 0.39 0.31 0.38 0.36 0.37 0.34 0.26 0.25 0.21 0.22 0.19 0.22 0.37 0.45 0.50 0.69 0.79 0.90 0.89 0.85 0.84 1.01
0.62 0.62 0.80 0.94 0.83 0.58 0.39 0.39 0.43 0.51 0.56 0.52 0.49 0.46 0.46 0.43 0.45 0.45 0.45 0.50 0.49 0.47 0.48 0.46 0.38 0.35 0.38 0.32 0.33 0.32 0.24 0.24 0.26 0.31 0.28 0.30 0.40 0.65 0.66 0.81 0.90 0.92 0.95 0.94 0.91
0.53 0.52 0.84 0.86 0.54 0.52 0.39 0.45 0.53 0.51 0.59 0.56 0.54 0.50 0.46 0.47 0.46 0.46 0.45 0.49 0.57 0.56 0.45 0.49 0.42 0.35 0.34 0.41 0.45 0.41 0.35 0.26 0.26 0.31 0.39 0.41 0.42 0.71 0.77 0.87 0.94 0.99 1.04 1.10 1.13
0.46 0.58 0.80 0.75 0.46 0.47 0.51 0.49 0.52 0.51 0.53 0.52 0.49 0.49 0.50 0.46 0.44 0.49 0.50 0.56 0.57 0.61 0.54 0.50 0.40 0.35 0.32 0.36 0.44 0.45 0.39 0.36 0.34 0.35 0.34 0.35 0.38 0.73 0.79 0.86 0.90 1.00 1.02 1.12 1.17
0.63 0.54 0.67 0.70 0.67 0.55 0.51 0.49 0.48 0.59 0.57 0.57 0.53 0.52 0.45 0.43 0.49 0.46 0.50 0.55 0.57 0.57 0.65 0.61 0.47 0.36 0.31 0.32 0.39 0.41 0.48 0.50 0.40 0.35 0.40 0.46 0.58 0.64 0.70 0.79 0.90 0.97 1.06 1.15 1.12
0.73 0.59 0.67 0.53 0.56 0.58 0.58 0.54 0.48 0.47 0.56 0.56 0.49 0.49 0.46 0.38 0.43 0.45 0.50 0.53 0.58 0.61 0.61 0.57 0.48 0.47 0.44 0.42 0.44 0.44 0.45 0.50 0.44 0.45 0.41 0.47 0.56 0.69 0.66 0.77 0.89 1.03 1.11 1.09 1.04
0.60 0.58 0.65 0.60 0.62 0.56 0.57 0.54 0.52 0.52 0.52 0.53 0.52 0.54 0.52 0.47 0.46 0.43 0.48 0.51 0.51 0.57 0.57 0.60 0.46 0.47 0.43 0.47 0.44 0.44 0.46 0.49 0.52 0.51 0.53 0.52 0.51 0.87 0.94 0.94 0.95 1.02 1.03 1.02 0.95
0.71 0.75 0.64 0.53 0.48 0.44 0.46 0.54 0.56 0.60 0.60 0.60 0.58 0.56 0.54 0.57 0.61 0.60 0.58 0.57 0.57 0.54 0.55 0.56 0.52 0.48 0.39 0.46 0.45 0.38 0.42 0.44 0.51 0.57 0.56 0.49 0.58 0.75 0.88 0.89 0.86 0.91 0.96 0.90 0.84

GFSSW_prec_pwat_171.txt.gz
Precipitable_Water
0.67 0.63 0.60 0.58 0.57 0.57 0.57 0.55 0.52 0.52 0.55 0.55 0.53 0.53 0.60 0.65 0.67 0.62 0.49 0.51 0.65 0.83 0.85 1.06 1.18 1.34 1.36 1.35 1.42 1.47 1.10 0.94 0.96 1.04 1.17 1.45 1.33 1.53 1.58 1.29 1.22 1.31 1.17 1.17 1.33
0.73 0.69 0.65 0.62 0.60 0.59 0.57 0.52 0.55 0.57 0.57 0.56 0.58 0.57 0.53 0.58 0.51 0.48 0.51 0.55 0.67 0.77 0.68 0.77 0.97 1.09 0.99 1.14 1.23 1.10 1.01 1.06 1.16 1.17 1.19 1.38 1.42 1.45 1.41 1.17 1.11 1.12 1.25 1.32 1.29
0.77 0.73 0.70 0.67 0.63 0.61 0.57 0.56 0.58 0.60 0.59 0.57 0.56 0.57 0.58 0.51 0.29 0.38 0.58 0.55 0.57 0.77 0.67 0.75 0.97 0.94 0.78 0.90 1.04 1.07 0.95 1.18 1.17 1.25 1.30 1.36 1.46 1.54 1.38 1.19 1.07 1.00 1.13 1.21 1.22
0.77 0.76 0.74 0.71 0.67 0.63 0.60 0.57 0.59 0.59 0.58 0.56 0.55 0.56 0.60 0.41 0.13 0.47 0.61 0.58 0.65 0.70 0.61 0.78 0.85 0.77 0.62 0.76 1.05 0.99 1.23 1.22 1.14 1.23 1.31 1.32 1.46 1.40 1.44 1.38 1.28 1.24 1.23 1.20 1.16
0.75 0.75 0.74 0.71 0.68 0.65 0.62 0.58 0.57 0.57 0.56 0.56 0.56 0.57 0.51 0.27 0.46 0.66 0.67 0.59 0.64 0.55 0.57 0.75 0.79 0.67 0.65 0.95 1.03 0.97 1.05 1.18 1.20 1.22 1.28 1.35 1.24 1.36 1.34 1.50 1.47 1.39 1.24 1.15 1.19
0.71 0.71 0.70 0.70 0.68 0.66 0.63 0.58 0.55 0.54 0.54 0.54 0.56 0.60 0.42 0.20 0.69 0.77 0.65 0.59 0.57 0.50 0.52 0.80 0.70 0.62 0.76 0.95 0.89 1.03 1.13 1.15 1.27 1.18 1.18 1.15 1.22 1.35 1.40 1.50 1.44 1.42 1.12 1.17 1.21
0.70 0.67 0.66 0.64 0.64 0.64 0.64 0.61 0.56 0.53 0.56 0.58 0.59 0.56 0.34 0.35 0.71 0.68 0.56 0.40 0.51 0.51 0.50 0.76 0.67 0.55 0.70 0.79 1.02 1.07 0.97 1.11 1.21 1.25 1.18 1.24 1.11 1.26 1.47 1.56 1.45 1.42 1.13 1.21 1.22
0.77 0.71 0.63 0.61 0.60 0.59 0.60 0.60 0.59 0.61 0.64 0.66 0.66 0.54 0.25 0.45 0.65 0.56 0.46 0.28 0.40 0.51 0.47 0.61 0.56 0.55 0.70 0.92 0.83 0.86 0.92 0.77 1.09 1.20 1.25 1.23 0.88 1.24 1.52 1.47 1.37 1.37 1.19 1.20 1.25
0.81 0.78 0.69 0.61 0.60 0.58 0.55 0.56 0.59 0.65 0.70 0.71 0.58 0.50 0.33 0.71 0.63 0.59 0.53 0.32 0.39 0.49 0.53 0.54 0.46 0.47 0.75 0.61 0.59 0.71 0.62 0.74 0.87 1.19 1.16 1.11 0.94 1.27 1.45 1.44 1.37 1.39 1.24 1.18 1.22
0.82 0.79 0.75 0.66 0.62 0.60 0.55 0.53 0.64 0.69 0.72 0.75 0.66 0.38 0.47 0.51 0.62 0.61 0.56 0.41 0.36 0.41 0.41 0.41 0.40 0.39 0.43 0.53 0.37 0.45 0.54 0.65 0.75 1.00 1.04 1.02 0.97 1.15 1.25 1.30 1.30 1.33 1.32 1.28 1.29
0.74 0.75 0.75 0.71 0.65 0.63 0.56 0.43 0.40 0.48 0.59 0.34 0.35 0.36 0.45 0.56 0.66 0.52 0.51 0.39 0.35 0.35 0.30 0.37 0.31 0.27 0.42 0.46 0.49 0.49 0.51 0.56 0.81 0.94 0.98 0.96 0.98 1.06 1.19 1.24 1.27 1.32 1.36 1.28 1.31
0.64 0.66 0.69 0.71 0.73 0.67 0.56 0.28 0.36 0.46 0.25 0.32 0.33 0.38 0.48 0.52 0.45 0.44 0.44 0.30 0.27 0.23 0.29 0.29 0.25 0.35 0.45 0.43 0.48 0.53 0.57 0.64 0.82 0.97 0.96 0.92 0.89 1.07 1.13 1.16 1.22 1.30 1.36 1.39 1.27
0.61 0.60 0.62 0.68 0.75 0.71 0.50 0.46 0.59 0.57 0.28 0.24 0.31 0.28 0.43 0.50 0.41 0.39 0.40 0.30 0.27 0.24 0.23 0.21 0.26 0.36 0.39 0.36 0.37 0.41 0.48 0.61 0.65 0.85 0.98 0.83 0.73 0.91 1.08 1.15 1.21 1.30 1.36 1.44 1.30
0.62 0.61 0.59 0.62 0.66 0.64 0.55 0.65 0.65 0.56 0.23 0.22 0.34 0.36 0.47 0.53 0.42 0.49 0.43 0.35 0.29 0.25 0.26 0.26 0.30 0.34 0.35 0.32 0.31 0.29 0.43 0.54 0.65 0.70 0.56 0.84 0.50 0.74 0.90 0.95 1.08 1.14 1.28 1.36 1.38
0.64 0.62 0.62 0.60 0.57 0.58 0.64 0.73 0.70 0.54 0.23 0.44 0.47 0.59 0.56 0.50 0.44 0.44 0.46 0.39 0.32 0.30 0.28 0.25 0.30 0.31 0.31 0.30 0.32 0.29 0.45 0.48 0.58 0.65 0.69 0.72 0.60 0.61 0.80 0.78 0.89 1.05 1.16 1.29 1.43
0.73 0.68 0.67 0.60 0.62 0.69 0.78 0.78 0.64 0.36 0.24 0.42 0.51 0.50 0.51 0.55 0.50 0.45 0.41 0.42 0.40 0.35 0.32 0.30 0.36 0.35 0.34 0.34 0.31 0.32 0.33 0.44 0.56 0.57 0.38 0.46 0.56 0.46 0.59 0.70 0.84 1.01 1.13 1.21 1.35
0.72 0.70 0.67 0.67 0.47 0.81 0.82 0.64 0.35 0.27 0.38 0.40 0.47 0.51 0.51 0.49 0.50 0.48 0.42 0.39 0.35 0.30 0.26 0.29 0.29 0.33 0.33 0.29 0.30 0.29 0.24 0.19 0.20 0.28 0.27 0.46 0.47 0.44 0.63 0.81 0.86 0.91 1.01 1.14 1.24
0.66 0.71 0.73 0.66 0.64 0.75 0.69 0.47 0.26 0.33 0.36 0.48 0.49 0.48 0.45 0.46 0.47 0.47 0.44 0.40 0.41 0.39 0.32 0.27 0.23 0.31 0.35 0.33 0.29 0.27 0.24 0.18 0.15 0.21 0.30 0.53 0.33 0.43 0.61 0.85 0.93 0.91 0.93 1.08 1.20
0.64 0.78 0.73 0.73 0.75 0.78 0.52 0.32 0.29 0.34 0.44 0.44 0.46 0.41 0.42 0.45 0.45 0.44 0.44 0.42 0.45 0.45 0.37 0.33 0.30 0.37 0.37 0.37 0.34 0.28 0.23 0.22 0.21 0.34 0.31 0.31 0.37 0.49 0.59 0.81 0.87 0.88 0.87 0.91 1.12
0.57 0.68 0.69 0.86 0.79 0.70 0.48 0.36 0.38 0.46 0.49 0.47 0.40 0.44 0.39 0.42 0.42 0.43 0.43 0.47 0.46 0.49 0.49 0.42 0.34 0.38 0.39 0.38 0.37 0.31 0.29 0.19 0.20 0.15 0.16 0.22 0.32 0.34 0.50 0.66 0.83 0.88 0.83 0.86 1.07
0.62 0.54 0.74 0.91 0.80 0.57 0.37 0.38 0.44 0.51 0.55 0.49 0.45 0.44 0.44 0.42 0.42 0.42 0.43 0.49 0.52 0.50 0.50 0.46 0.40 0.38 0.41 0.36 0.33 0.31 0.27 0.25 0.23 0.22 0.18 0.20 0.28 0.51 0.55 0.71 0.79 0.88 0.82 0.77 0.84
0.52 0.48 0.83 0.83 0.53 0.55 0.41 0.45 0.50 0.50 0.58 0.55 0.53 0.49 0.46 0.44 0.42 0.41 0.42 0.48 0.54 0.53 0.50 0.51 0.42 0.36 0.38 0.41 0.42 0.40 0.34 0.31 0.22 0.20 0.29 0.34 0.34 0.59 0.67 0.74 0.91 0.94 0.95 0.91 0.90
0.51 0.61 0.85 0.76 0.44 0.46 0.52 0.50 0.54 0.52 0.53 0.52 0.49 0.51 0.52 0.45 0.39 0.43 0.45 0.54 0.56 0.54 0.53 0.53 0.42 0.35 0.37 0.40 0.41 0.36 0.40 0.41 0.33 0.29 0.27 0.27 0.31 0.58 0.66 0.74 0.91 0.96 1.00 1.02 1.01
0.65 0.49 0.64 0.69 0.65 0.54 0.50 0.50 0.48 0.57 0.54 0.55 0.52 0.53 0.50 0.44 0.46 0.42 0.44 0.51 0.58 0.59 0.65 0.59 0.49 0.43 0.36 0.39 0.39 0.37 0.42 0.43 0.40 0.33 0.32 0.34 0.38 0.49 0.59 0.68 0.84 0.94 1.00 1.05 1.06
0.64 0.55 0.66 0.51 0.55 0.55 0.53 0.52 0.48 0.47 0.57 0.58 0.51 0.52 0.50 0.43 0.46 0.45 0.50 0.53 0.58 0.62 0.63 0.61 0.48 0.49 0.48 0.46 0.42 0.41 0.41 0.45 0.43 0.46 0.41 0.42 0.43 0.50 0.57 0.66 0.79 0.88 0.99 1.03 1.04
0.54 0.54 0.61 0.56 0.60 0.54 0.53 0.49 0.49 0.52 0.55 0.52 0.50 0.54 0.55 0.48 0.49 0.46 0.50 0.50 0.51 0.58 0.57 0.61 0.52 0.53 0.48 0.52 0.47 0.41 0.46 0.46 0.48 0.49 0.51 0.49 0.45 0.57 0.67 0.78 0.78 0.88 0.95 1.01 1.07
0.68 0.71 0.57 0.48 0.46 0.41 0.42 0.47 0.50 0.57 0.60 0.65 0.60 0.56 0.53 0.58 0.62 0.60 0.59 0.58 0.56 0.55 0.53 0.55 0.52 0.51 0.42 0.51 0.50 0.41 0.45 0.47 0.48 0.51 0.49 0.46 0.50 0.64 0.65 0.72 0.72 0.86 0.95 1.01 1.11

GFSSW_prec_pwat_174.txt.gz
Precipitable_Water
0.71 0.68 0.65 0.63 0.61 0.60 0.60 0.56 0.53 0.54 0.55 0.55 0.56 0.61 0.66 0.69 0.70 0.64 0.49 0.54 0.64 0.87 1.02 0.97 1.24 1.36 1.38 1.26 1.29 1.39 1.01 0.91 0.92 1.06 1.13 1.42 1.37 1.53 1.57 1.28 1.21 1.28 1.15 1.14 1.35
0.75 0.73 0.70 0.68 0.65 0.63 0.59 0.55 0.56 0.56 0.56 0.55 0.56 0.56 0.58 0.67 0.57 0.49 0.53 0.56 0.79 0.87 0.81 0.87 1.01 1.11 0.90 1.00 1.10 0.96 0.89 0.93 1.19 1.16 1.17 1.34 1.39 1.41 1.35 1.16 1.10 1.11 1.20 1.23 1.25
0.77 0.76 0.73 0.70 0.67 0.63 0.59 0.58 0.60 0.58 0.57 0.55 0.54 0.57 0.57 0.53 0.38 0.41 0.56 0.58 0.69 0.71 0.69 0.84 1.02 0.93 0.64 0.90 0.97 0.99 0.90 1.06 1.16 1.20 1.30 1.35 1.38 1.48 1.33 1.10 1.11 0.97 1.07 1.15 1.17
0.74 0.73 0.71 0.69 0.67 0.64 0.60 0.59 0.60 0.58 0.56 0.55 0.54 0.56 0.60 0.41 0.13 0.52 0.69 0.57 0.61 0.68 0.63 0.68 0.78 0.68 0.58 0.72 0.98 0.85 1.11 1.18 1.17 1.25 1.24 1.26 1.45 1.37 1.36 1.34 1.30 1.18 1.21 1.14 1.12
0.70 0.69 0.69 0.67 0.66 0.65 0.62 0.59 0.59 0.56 0.55 0.54 0.55 0.57 0.52 0.27 0.37 0.57 0.67 0.63 0.66 0.57 0.58 0.80 0.68 0.62 0.60 0.83 0.86 0.90 1.04 1.22 1.26 1.22 1.28 1.28 1.25 1.31 1.36 1.51 1.45 1.31 1.23 1.15 1.19
0.72 0.68 0.65 0.63 0.63 0.64 0.63 0.59 0.56 0.53 0.53 0.53 0.56 0.60 0.40 0.30 0.65 0.73 0.67 0.58 0.56 0.50 0.55 0.78 0.61 0.67 0.75 0.83 0.77 1.08 1.10 1.15 1.21 1.20 1.23 1.17 1.21 1.31 1.37 1.54 1.46 1.35 1.15 1.18 1.22
0.76 0.73 0.66 0.61 0.59 0.61 0.62 0.62 0.58 0.53 0.56 0.60 0.60 0.56 0.31 0.34 0.70 0.75 0.56 0.51 0.59 0.51 0.45 0.77 0.68 0.55 0.70 0.71 0.96 1.02 0.92 1.10 1.15 1.17 1.15 1.24 1.06 1.16 1.43 1.49 1.37 1.33 1.16 1.16 1.22
0.75 0.74 0.70 0.61 0.57 0.57 0.56 0.58 0.60 0.59 0.62 0.65 0.67 0.53 0.24 0.52 0.74 0.58 0.52 0.37 0.51 0.53 0.47 0.68 0.61 0.57 0.79 0.84 0.86 0.80 0.85 0.74 1.04 1.18 1.23 1.16 0.86 1.19 1.39 1.39 1.41 1.42 1.14 1.15 1.19
0.77 0.75 0.73 0.68 0.60 0.58 0.55 0.54 0.60 0.63 0.68 0.72 0.58 0.50 0.26 0.59 0.55 0.61 0.50 0.31 0.36 0.49 0.50 0.59 0.53 0.62 0.74 0.57 0.54 0.71 0.54 0.62 0.72 1.05 1.13 1.10 0.92 1.21 1.38 1.37 1.33 1.35 1.33 1.15 1.15
0.67 0.71 0.73 0.72 0.65 0.61 0.59 0.58 0.61 0.64 0.64 0.70 0.66 0.37 0.45 0.47 0.64 0.60 0.53 0.37 0.37 0.45 0.43 0.44 0.44 0.41 0.49 0.49 0.36 0.42 0.47 0.56 0.60 0.88 1.02 0.97 0.95 1.15 1.28 1.29 1.31 1.35 1.27 1.19 1.15
0.63 0.62 0.66 0.69 0.72 0.65 0.61 0.55 0.32 0.40 0.57 0.37 0.33 0.33 0.45 0.55 0.64 0.58 0.52 0.39 0.40 0.39 0.32 0.37 0.31 0.26 0.30 0.50 0.50 0.48 0.45 0.47 0.66 0.89 0.86 0.88 0.90 1.00 1.17 1.20 1.24 1.32 1.27 1.23 1.19
0.63 0.60 0.59 0.63 0.69 0.74 0.62 0.32 0.37 0.46 0.26 0.35 0.35 0.35 0.48 0.53 0.45 0.47 0.54 0.34 0.32 0.30 0.34 0.31 0.26 0.33 0.43 0.44 0.45 0.44 0.44 0.48 0.70 0.90 0.87 0.88 0.83 1.01 1.10 1.10 1.16 1.27 1.34 1.29 1.23
0.64 0.61 0.57 0.57 0.67 0.72 0.54 0.48 0.60 0.57 0.29 0.27 0.32 0.29 0.37 0.47 0.44 0.42 0.42 0.34 0.27 0.25 0.28 0.26 0.30 0.36 0.42 0.42 0.42 0.41 0.39 0.40 0.46 0.78 0.93 0.89 0.74 0.84 1.01 1.09 1.15 1.25 1.36 1.42 1.32
0.69 0.65 0.58 0.56 0.53 0.63 0.53 0.67 0.67 0.61 0.23 0.23 0.32 0.36 0.42 0.53 0.42 0.51 0.44 0.37 0.29 0.25 0.26 0.25 0.31 0.30 0.38 0.37 0.37 0.32 0.37 0.40 0.48 0.58 0.53 0.85 0.47 0.71 0.87 0.91 1.02 1.11 1.22 1.35 1.33
0.74 0.70 0.61 0.59 0.48 0.51 0.63 0.72 0.71 0.50 0.18 0.38 0.47 0.61 0.58 0.51 0.50 0.48 0.49 0.38 0.29 0.27 0.28 0.23 0.25 0.30 0.32 0.34 0.34 0.29 0.35 0.42 0.52 0.51 0.58 0.66 0.52 0.54 0.74 0.72 0.88 1.02 1.11 1.26 1.39
0.75 0.75 0.70 0.61 0.58 0.63 0.72 0.77 0.59 0.33 0.24 0.43 0.50 0.46 0.48 0.54 0.50 0.49 0.47 0.44 0.39 0.34 0.33 0.30 0.34 0.34 0.35 0.37 0.34 0.36 0.39 0.48 0.56 0.54 0.36 0.46 0.46 0.39 0.53 0.60 0.77 0.99 1.04 1.17 1.29
0.67 0.68 0.68 0.67 0.44 0.72 0.77 0.62 0.37 0.27 0.36 0.39 0.45 0.52 0.47 0.49 0.49 0.45 0.43 0.39 0.34 0.28 0.28 0.31 0.30 0.34 0.37 0.32 0.34 0.32 0.30 0.23 0.26 0.30 0.23 0.40 0.42 0.38 0.52 0.64 0.72 0.85 0.98 1.09 1.21
0.63 0.70 0.80 0.70 0.66 0.71 0.66 0.42 0.26 0.29 0.35 0.47 0.47 0.50 0.46 0.48 0.49 0.48 0.43 0.39 0.41 0.38 0.32 0.28 0.23 0.29 0.36 0.34 0.32 0.30 0.27 0.21 0.15 0.15 0.18 0.45 0.31 0.37 0.55 0.66 0.80 0.93 0.92 1.02 1.11
0.66 0.76 0.69 0.71 0.72 0.77 0.53 0.33 0.30 0.29 0.41 0.41 0.45 0.41 0.44 0.47 0.45 0.46 0.45 0.43 0.45 0.44 0.36 0.33 0.31 0.36 0.36 0.36 0.34 0.30 0.26 0.28 0.24 0.28 0.22 0.34 0.37 0.45 0.53 0.61 0.79 0.85 0.88 0.94 1.00
0.65 0.67 0.65 0.78 0.79 0.68 0.45 0.36 0.39 0.44 0.46 0.46 0.37 0.43 0.40 0.44 0.43 0.43 0.43 0.47 0.46 0.49 0.49 0.43 0.33 0.40 0.41 0.40 0.39 0.34 0.34 0.24 0.23 0.15 0.14 0.16 0.23 0.29 0.41 0.53 0.72 0.83 0.85 0.85 0.94
0.63 0.55 0.75 0.82 0.75 0.56 0.37 0.38 0.43 0.51 0.54 0.47 0.44 0.43 0.45 0.43 0.42 0.42 0.43 0.49 0.51 0.49 0.50 0.47 0.43 0.41 0.42 0.38 0.35 0.32 0.28 0.27 0.25 0.20 0.16 0.15 0.18 0.40 0.48 0.63 0.72 0.86 0.89 0.81 0.83
0.57 0.46 0.80 0.81 0.50 0.50 0.42 0.47 0.51 0.50 0.57 0.54 0.52 0.49 0.45 0.45 0.41 0.41 0.41 0.46 0.54 0.53 0.48 0.51 0.46 0.41 0.40 0.46 0.44 0.39 0.34 0.31 0.24 0.21 0.23 0.22 0.21 0.49 0.59 0.64 0.78 0.90 0.92 0.89 0.93
0.54 0.60 0.82 0.76 0.42 0.45 0.53 0.51 0.53 0.49 0.51 0.50 0.48 0.49 0.51 0.46 0.41 0.43 0.44 0.51 0.54 0.52 0.49 0.51 0.46 0.40 0.40 0.43 0.42 0.37 0.39 0.39 0.35 0.33 0.27 0.21 0.21 0.45 0.58 0.65 0.79 0.91 0.98 0.94 0.93
0.61 0.45 0.61 0.66 0.62 0.51 0.48 0.50 0.50 0.59 0.54 0.56 0.52 0.54 0.50 0.46 0.48 0.43 0.46 0.51 0.57 0.56 0.60 0.57 0.48 0.45 0.41 0.43 0.46 0.40 0.39 0.37 0.37 0.34 0.33 0.30 0.28 0.34 0.44 0.58 0.76 0.87 1.00 0.99 0.97
0.58 0.51 0.62 0.48 0.53 0.54 0.52 0.50 0.46 0.47 0.59 0.60 0.53 0.53 0.51 0.44 0.46 0.46 0.49 0.51 0.57 0.59 0.58 0.53 0.44 0.48 0.50 0.51 0.50 0.49 0.43 0.40 0.37 0.41 0.33 0.35 0.41 0.41 0.44 0.56 0.70 0.90 0.98 0.98 0.98
0.47 0.47 0.54 0.47 0.53 0.51 0.51 0.48 0.48 0.51 0.52 0.50 0.51 0.56 0.56 0.49 0.51 0.47 0.52 0.52 0.49 0.57 0.56 0.59 0.45 0.50 0.50 0.56 0.51 0.46 0.48 0.43 0.43 0.45 0.47 0.48 0.46 0.58 0.59 0.60 0.65 0.80 0.91 0.96 1.01
0.64 0.67 0.53 0.43 0.43 0.38 0.39 0.41 0.43 0.48 0.49 0.56 0.57 0.55 0.54 0.58 0.65 0.66 0.66 0.64 0.61 0.56 0.54 0.54 0.51 0.46 0.40 0.52 0.56 0.47 0.46 0.49 0.49 0.50 0.48 0.43 0.47 0.56 0.58 0.57 0.57 0.69 0.82 0.89 1.01